Miscellaneous Local Product
Issued by NWS Hastings, NE

Home | Current Version | Previous Version | Graphics & Text | Print | Product List | Glossary On
Versions: 1 2 3 4 5 6 7 8 9 10 11 12 13 14 15 16 17 18 19 20 21 22 23 24 25 26 27 28 29 30 31 32 33 34 35 36 37 38 39 40 41 42 43 44 45 46 47 48 49 50
000
AXUS43 KGID 260602
MISGRI

GID CWA HOURLY WEATHER ROUNDUP
NATIONAL WEATHER SERVICE HASTINGS NE
100 AM CDT TUE AUG 26 2014

NOTE: "FAIR" INDICATES FEW OR NO CLOUDS BELOW 12,000 FEET WITH NO
SIGNIFICANT WEATHER AND/OR OBSTRUCTIONS TO VISIBILITY.

...SOUTH CENTRAL NEBRASKA...

CITY           SKY/WX    TMP DP  RH WIND       PRES   REMARKS
GRAND ISLAND   TSTM      65  60  84 SE6       30.13R
HASTINGS       MOCLDY    63  57  81 E8        30.09R THUNDER
KEARNEY        MOCLDY    64  59  82 N5        30.13R
ORD            PTCLDY    59  56  89 NW5       30.10F
YORK           TSTM      61 N/A N/A N5G25     30.16R
LEXINGTON      CLOUDY    64  59  86 E5        30.13S
HOLDREGE       FAIR      62  58  88 CALM      30.12F
HEBRON         CLOUDY    67  56  67 W6        30.11R

...NEBRASKA PANHANDLE...

CITY           SKY/WX    TMP DP  RH WIND       PRES   REMARKS
CHADRON        CLOUDY    62  49  62 NE8       30.18R
ALLIANCE       PTCLDY    63  53  70 E15       30.16R
SCOTTSBLUFF    PTCLDY    60  53  77 SE9       30.14R
SIDNEY         PTCLDY    66  58  75 SE16G22   30.17S

...WESTERN AND NORTH CENTRAL NEBRASKA...

CITY           SKY/WX    TMP DP  RH WIND       PRES   REMARKS
VALENTINE      PTCLDY    56  51  84 E3        30.18R
AINSWORTH      PTCLDY    56  53  87 CALM      30.17R
ONEILL         CLEAR     59  55  85 NE7       30.14S
BROKEN BOW     MOCLDY    61  58  90 N6        30.14R
IMPERIAL       RAIN      64  61  90 SE14      30.23R FOG
NORTH PLATTE   CLOUDY    61  58  90 NW5       30.18R
MCCOOK         CLOUDY    66  58  75 SW16G25   30.23R

...EASTERN NEBRASKA...

CITY           SKY/WX    TMP DP  RH WIND       PRES   REMARKS
NORFOLK        FAIR      66  57  72 N9        30.08F
SO SIOUX CITY  FAIR      67  60  78 N9        30.05F
TEKAMAH        MOCLDY    65  62  90 NE5       30.04F
COLUMBUS       CLOUDY   N/A N/A N/A S12       30.11R
ALBION         FAIR      61  58  88 CALM      30.09R
OMAHA EPPLEY   TSTM      68  60  75 E21       30.01F
OFFUTT AFB     CLOUDY    69  63  80 NE15      30.02F
MILLARD        CLOUDY    69  58  67 N6        30.03F
LINCOLN        CLOUDY    67  58  72 N10       30.05R
NEBRASKA CITY  FAIR      66  63  88 NE8       30.02F
BEATRICE       MOCLDY    67  60  76 E5        30.02R
FALLS CITY     FAIR      71  67  87 NE5       29.98F

...NORTHERN KANSAS...

CITY           SKY/WX    TMP DP  RH WIND       PRES   REMARKS
GOODLAND       LGT RAIN  62  59  90 NE8       30.23R
HILL CITY      FAIR      66  55  67 E7        30.12S
PHILLIPSBURG   CLEAR     66  55  68 N3        30.11R THUNDER
SMITH CENTER   CLEAR     63  55  77 NE9       30.09F
BELOIT         CLOUDY    66  64  94 W3        30.05F
HAYS           FAIR      68  63  83 N10       30.09F
RUSSELL        FAIR      70  62  76 VRB7      30.09R
CONCORDIA      LGT RAIN  66  65  96 N3        30.03F
SALINA         FAIR      73  63  70 NW10      30.09R
TOPEKA         FAIR      81  70  69 E5        29.99S



USA.gov is the U.S. government's official web portal to all federal, state and local government web resources and services.